Location: Bratislava
(48.1500°N, 17.1170°E)
Time: 03:48:02
(UTC+02:00)

Tiangong 2 - Visible Passes

Search period start: 25 June 2017 00:00
Search period end: 05 July 2017 00:00
Orbit: 391 x 396 km, 42.8° (Epoch: 24 June)

Date Brightness Start Highest point End Pass type
(mag) Time Alt. Az. Time Alt. Az. Time Alt. Az.
01 Jul 3.5 03:45:38 10° S 03:46:51 12° SSE 03:48:04 10° SE visible
03 Jul 3.0 03:28:56 15° S 03:30:05 18° SSE 03:32:19 10° ESE visible
04 Jul 3.6 02:34:36 12° SE 02:34:36 12° SE 02:35:08 10° SE visible
04 Jul 2.3 04:07:06 10° SW 04:09:55 28° S 04:12:44 10° ESE visible
